[[{"header":{"parameterUnit":"m.s-1","parameterCategory":1,"la1":30.2991,"la2":30.254,"lo1":-89.0895,"lo2":-89.0444,"dy":0.0017,"dx":0.0017,"nx":28,"ny":28,"refTime":"2024-11-28T09:00:00:Z","depth":0,"parameterNumber":2,"parameterNumberName":"U-component_of_WINDS"},"data":[0,0,0,0,0,0,0,0,0,0,0,0,0,0,0,0,0,0,0,0,0,0,0,0,0,0,0,0,0,0,0,0,0,0,0,0,0,0,0,0,0,0,0,0,0,0,0,0,0,0,0,0,0,0,0,0,0,0,0.0939,0.0937,0,0.0742,0.074,0.0738,0.0647,0.0647,0.0647,0.0647,0.0437,0.0431,0.0425,0,0,0,0,0,0,0,0,0,0,0,0,0,0.1228,0.1223,0.094,0.0937,0.0935,0.0743,0.074,0.0737,0.0647,0.0647,0.0647,0.0648,0.0439,0.0432,0.0425,0,0,0,0,0,0,0,0,0,0,0,0,0,0.1074,0.1222,0.094,0.0867,0.0858,0.0743,0.074,0.0737,0.0647,0.0647,0.0647,0.0648,0.0441,0.0432,0.0424,0.0365,0,0,0.0397,0.0394,0,0,0,0,0,0,0,0,0.1083,0.1063,0.088,0.0871,0.0862,0.072,0.0764,0.0612,0.0647,0.0727,0.0647,0.0648,0.053,0.0514,0.0476,0.0355,0.0346,0.0397,0.0391,0.0388,0.0385,0,0,0,0,0,0,0,0.1094,0.1071,0.0861,0.0877,0.0866,0.084,0.0819,0.0735,0.0629,0.072,0.0713,0.0691,0.0525,0.0485,0.0471,0.0342,0.0397,0.0389,0.0384,0.038,0.016,0.016,0,0,0,0,0,0,0.1117,0.1081,0.0867,0.0855,0.0975,0.0835,0.0811,0.0765,0.063,0.0609,0.0691,0.0688,0.0499,0.0481,0.0463,0.0383,0.0388,0.0379,0.0374,0.0161,0.016,0.0159,0,0,0,0,0,0,0.1124,0.1099,0.0875,0.0966,0.0936,0.083,0.0779,0.0761,0.0721,0.0608,0.0588,0.067,0.0499,0.0475,0.039,0.0375,0.0376,0.0368,0.0162,0.0161,0.016,0.0225,0,0,0,0,0,0,0.1133,0.1102,0.1081,0.0966,0.0931,0.0809,0.0778,0.0757,0.0707,0.07,0.0583,0.0564,0.0497,0.0403,0.0381,0.0363,0.0361,0.0162,0.0161,0.016,0.0224,0.0227,0.0229,0,0,0,0,0,0.1143,0.1105,0.108,0.1055,0.0903,0.0808,0.0788,0.0715,0.0706,0.0682,0.061,0.0567,0.038,0.0395,0.037,0.0349,0.0163,0.0161,0.016,0.0223,0.0226,0.0229,0,0,0,0,0,0,0.1218,0.1089,0.106,0.0984,0.0909,0.0793,0.0761,0.0721,0.0643,0.064,0.055,0.0524,0.0447,0.0389,0.0408,0.0283,0.0267,0.0261,0.0324,0.0326,0.0329,0.0344,0.0354,0,0,0,0,0,0.1226,0.1163,0.1053,0.0997,0.096,0.0868,0.0824,0.0774,0.069,0.0657,0.0578,0.0496,0.0418,0.0369,0.0291,0.0215,0.0187,0.0187,0.019,0.0193,0.0188,0.0141,0.014,0.0155,0.0155,0.0155,0,0,0.1241,0.1163,0.1128,0.101,0.0945,0.0879,0.0841,0.0773,0.0722,0.0645,0.0561,0.05,0.0402,0.0321,0.0281,0.027,0.0177,0.0191,0.0194,0.0187,0.014,0.0138,0.0137,0.0154,0.0154,0.0154,0,0,0.1235,0.1171,0.1117,0.1053,0.0957,0.0895,0.0883,0.0773,0.0731,0.0645,0.0586,0.0523,0.0392,0.0324,0.0272,0.0241,0.0198,0.0218,0.023,0.0186,0.0185,0.0183,0.0171,0.0167,0.0213,0.0213,0.0213,0,0.1265,0.1167,0.1093,0.1029,0.0977,0.0908,0.0851,0.0791,0.0673,0.0638,0.0628,0.0462,0.0391,0.0293,0.0285,0.0246,0.0226,0.023,0.0192,0.0189,0.0187,0.0173,0.0169,0.0216,0.0216,0.0216,0.0215,0,0.1208,0.114,0.1107,0.0999,0.0943,0.0883,0.0797,0.0749,0.0705,0.0643,0.0556,0.0468,0.0372,0.0344,0.0299,0.0239,0.0235,0.021,0.0192,0.019,0.0176,0.017,0.022,0.0219,0.0219,0.0218,0,0,0.1243,0.1095,0.1084,0.1034,0.0922,0.0866,0.0801,0.071,0.067,0.059,0.0532,0.0422,0.0398,0.034,0.0286,0.0247,0.0226,0.0226,0.0222,0.0228,0.0152,0.0172,0.0167,0.0197,0.0196,0.0195,0.016,0,0.1221,0.1105,0.1037,0.0948,0.0883,0.0816,0.0759,0.0683,0.0623,0.0557,0.049,0.0414,0.0388,0.0352,0.0311,0.0238,0.0209,0.0239,0.0139,0.0136,0.0166,0.016,0.018,0.0151,0.0154,0.0153,0.0152,0,0.118,0.1105,0.1011,0.0906,0.0876,0.0827,0.0737,0.0675,0.0586,0.0545,0.0481,0.0427,0.0352,0.0341,0.0236,0.0258,0.0212,0.017,0.0167,0.0154,0.0144,0.0146,0.014,0.0136,0.0143,0.0144,0.0145,0,0.1214,0.1089,0.1016,0.0975,0.0851,0.0818,0.0764,0.0676,0.0625,0.0545,0.051,0.0421,0.0373,0.0304,0.0226,0.0226,0.0127,0.011,0.0089,0.0091,0.0071,0.0073,0.0057,0.0043,0.0043,0.0044,0.0044,0,0.1196,0.114,0.103,0.0985,0.092,0.0841,0.0777,0.0717,0.0639,0.0579,0.0514,0.0459,0.036,0.0291,0.0229,0.015,0.0129,0.0091,0.0075,0.0097,0.0102,0.0065,0.0065,0.0042,0.0043,0.0043,0.0043,0,0.1223,0.1147,0.1063,0.0954,0.0925,0.0881,0.0786,0.0738,0.0676,0.06,0.0577,0.0478,0.0394,0.031,0.0195,0.0153,0.0075,0.0054,0.0106,0.0097,0.008,0.0082,0.004,0.0029,0.0024,0.0025,0.0025,0,0.1216,0.1172,0.1059,0.1016,0.0965,0.0895,0.0844,0.0763,0.0711,0.0606,0.057,0.0481,0.0406,0.0273,0.0189,0.01,0.0076,0.0067,0.0062,0.0084,0.0074,0.0077,0.0072,0.0069,0.007,0.007,0.007,0,0.1212,0.1177,0.1107,0.1024,0.0965,0.0894,0.0821,0.0788,0.0692,0.0636,0.0551,0.0493,0.0377,0.0289,0.019,0.013,0.0083,0.0073,0.0063,0.0084,0.0116,0.0097,0.0112,0.0074,0.0074,0.0073,0.0073,0.0073,0.1221,0.1179,0.1093,0.1016,0.0953,0.0886,0.0836,0.0768,0.0697,0.0598,0.0554,0.0467,0.0376,0.024,0.0181,0.011,0.0098,0.0084,0.008,0.0077,0.0082,0.0128,0.0092,0.0091,0.0091,0.0091,0.0091,0,0.1213,0.1154,0.1085,0.0986,0.0925,0.089,0.0807,0.0757,0.0683,0.0604,0.0533,0.0433,0.0347,0.0256,0.0164,0.0124,0.01,0.0102,0.0104,0.009,0.0099,0.0116,0.0123,0.0123,0.0123,0.0123,0.0123,0.0123,0.1201,0.1128,0.1082,0.0976,0.0916,0.0834,0.0789,0.0726,0.0663,0.0556,0.0486,0.0428,0.0343,0.0244,0.0163,0.0138,0.0106,0.0114,0.0083,0.0092,0.009,0.0088,0.0104,0.0109,0.0109,0.0081,0.008,0.008]},{"header":{"parameterUnit":"m.s-1","parameterCategory":1,"la1":30.2991,"la2":30.254,"lo1":-89.0895,"lo2":-89.0444,"dy":0.0017,"dx":0.0017,"nx":28,"ny":28,"refTime":"2024-11-28T09:00:00:Z","depth":0,"parameterNumber":3,"parameterNumberName":"V-component_of_WINDS"},"data":[0,0,0,0,0,0,0,0,0,0,0,0,0,0,0,0,0,0,0,0,0,0,0,0,0,0,0,0,0,0,0,0,0,0,0,0,0,0,0,0,0,0,0,0,0,0,0,0,0,0,0,0,0,0,0,0,0,0,-7.4533,-7.4536,0,-7.4736,-7.4738,-7.4741,-7.4726,-7.4723,-7.472,-7.4717,-7.4915,-7.4923,-7.4931,0,0,0,0,0,0,0,0,0,0,0,0,0,-7.4127,-7.4135,-7.4533,-7.4536,-7.4538,-7.4736,-7.4738,-7.4741,-7.4726,-7.4723,-7.4719,-7.4716,-7.4913,-7.4922,-7.4932,0,0,0,0,0,0,0,0,0,0,0,0,0,-7.4314,-7.4137,-7.4533,-7.4555,-7.4559,-7.4735,-7.4738,-7.4742,-7.4727,-7.4723,-7.4718,-7.4714,-7.4909,-7.4921,-7.4933,-7.5097,0,0,-7.497,-7.4975,0,0,0,0,0,0,0,0,-7.4303,-7.4329,-7.4549,-7.4554,-7.4559,-7.4701,-7.4668,-7.4861,-7.4728,-7.4663,-7.4717,-7.4712,-7.4847,-7.4864,-7.4911,-7.5107,-7.5115,-7.4971,-7.4978,-7.4984,-7.4987,0,0,0,0,0,0,0,-7.429,-7.432,-7.4613,-7.4552,-7.4558,-7.4553,-7.4574,-7.4704,-7.4777,-7.4668,-7.4668,-7.4692,-7.4849,-7.49,-7.4916,-7.5118,-7.4971,-7.4982,-7.4989,-7.4994,-7.5462,-7.5467,0,0,0,0,0,0,-7.4274,-7.4309,-7.4607,-7.4619,-7.4418,-7.4564,-7.4588,-7.466,-7.4776,-7.479,-7.4696,-7.4691,-7.4881,-7.4902,-7.4923,-7.5126,-7.4984,-7.4995,-7.5002,-7.5456,-7.5463,-7.5468,0,0,0,0,0,0,-7.4265,-7.43,-7.4598,-7.4464,-7.4502,-7.4576,-7.4656,-7.4666,-7.4717,-7.4797,-7.4809,-7.4736,-7.4879,-7.4906,-7.5056,-7.5132,-7.5,-7.5011,-7.545,-7.5458,-7.5466,-7.553,0,0,0,0,0,0,-7.4253,-7.4297,-7.4362,-7.4466,-7.4509,-7.473,-7.4661,-7.4673,-7.4739,-7.4735,-7.4837,-7.485,-7.4877,-7.5038,-7.5068,-7.5146,-7.5021,-7.5444,-7.5454,-7.5463,-7.5522,-7.5539,-7.5554,0,0,0,0,0,-7.4239,-7.4369,-7.4365,-7.4401,-7.4592,-7.4734,-7.4759,-7.479,-7.4746,-7.481,-7.4862,-7.4847,-7.5119,-7.5053,-7.5087,-7.517,-7.5439,-7.5451,-7.5462,-7.5514,-7.5536,-7.5554,0,0,0,0,0,0,-7.4267,-7.4383,-7.438,-7.4548,-7.4632,-7.4732,-7.4814,-7.4812,-7.4907,-7.4898,-7.4931,-7.4954,-7.5105,-7.5152,-7.5077,-7.5337,-7.5273,-7.5292,-7.5301,-7.5322,-7.5338,-7.5323,-7.5031,0,0,0,0,0,-7.4294,-7.4403,-7.4496,-7.4636,-7.4679,-7.474,-7.4802,-7.482,-7.4907,-7.4941,-7.5004,-7.5087,-7.5191,-7.5259,-7.5359,-7.5529,-7.5551,-7.5603,-7.5619,-7.5632,-7.5648,-7.5743,-7.5768,-7.5507,-7.5506,-7.5506,0,0,-7.4348,-7.4425,-7.449,-7.4644,-7.4711,-7.4821,-7.4769,-7.4887,-7.4969,-7.4958,-7.5105,-7.5154,-7.5248,-7.541,-7.5484,-7.5454,-7.5726,-7.5647,-7.5657,-7.5666,-7.5758,-7.5783,-7.5804,-7.5514,-7.5513,-7.5512,0,0,-7.4504,-7.4573,-7.4698,-7.4768,-7.4872,-7.4913,-7.4943,-7.5045,-7.5078,-7.5227,-7.5222,-7.5319,-7.5497,-7.5566,-7.5624,-7.5812,-7.5801,-7.5843,-7.5928,-7.6021,-7.6042,-7.606,-7.6128,-7.6152,-7.5858,-7.5859,-7.5859,0,-7.4558,-7.4727,-7.4762,-7.4883,-7.4951,-7.4951,-7.5078,-7.5143,-7.5273,-7.5319,-7.5284,-7.5512,-7.5575,-7.5754,-7.58,-7.5846,-7.5882,-7.5831,-7.6036,-7.6055,-7.6073,-7.6138,-7.6164,-7.5863,-7.5863,-7.5862,-7.5862,0,-7.4788,-7.4906,-7.4994,-7.5125,-7.5202,-7.5325,-7.5378,-7.5452,-7.5464,-7.5508,-7.566,-7.5737,-7.5854,-7.5898,-7.5908,-7.6079,-7.6058,-7.6029,-7.5966,-7.6102,-7.6164,-7.6189,-7.587,-7.5868,-7.5867,-7.5865,0,0,-7.4965,-7.5118,-7.515,-7.5211,-7.5328,-7.5418,-7.5541,-7.566,-7.5724,-7.5814,-7.5918,-7.6072,-7.6048,-7.6114,-7.6133,-7.6214,-7.636,-7.6177,-7.6179,-7.6209,-7.6555,-7.6576,-7.6605,-7.6355,-7.636,-7.6363,-7.6548,0,-7.5134,-7.5357,-7.5394,-7.5588,-7.5698,-7.5701,-7.5809,-7.5892,-7.5937,-7.6034,-7.6082,-7.6192,-7.6151,-7.6192,-7.6273,-7.6326,-7.643,-7.6313,-7.6451,-7.6455,-7.6428,-7.6637,-7.6659,-7.6829,-7.6572,-7.6576,-7.6579,0,-7.536,-7.5462,-7.5669,-7.5775,-7.5822,-7.5918,-7.6032,-7.6126,-7.622,-7.6247,-7.6324,-7.6334,-7.6461,-7.6393,-7.6569,-7.6488,-7.6547,-7.6582,-7.6589,-7.6603,-7.6526,-7.6658,-7.6884,-7.691,-7.6617,-7.6614,-7.6612,0,-7.5471,-7.5659,-7.5808,-7.5859,-7.5986,-7.6055,-7.611,-7.62,-7.627,-7.6369,-7.6415,-7.6525,-7.6586,-7.6671,-7.671,-7.6657,-7.6885,-7.6819,-7.691,-7.6909,-7.6957,-7.6954,-7.7197,-7.6994,-7.6994,-7.6993,-7.6993,0,-7.5655,-7.5782,-7.586,-7.5951,-7.6093,-7.6135,-7.6274,-7.6327,-7.6408,-7.6509,-7.6517,-7.6611,-7.6658,-7.6759,-7.679,-7.6932,-7.6959,-7.6984,-7.699,-7.6984,-7.6981,-7.7022,-7.7012,-7.7,-7.6999,-7.6997,-7.6996,0,-7.5802,-7.5859,-7.6022,-7.6131,-7.6162,-7.6262,-7.6354,-7.6442,-7.6488,-7.6616,-7.6649,-7.672,-7.684,-7.6888,-7.7033,-7.7054,-7.7218,-7.7215,-7.7188,-7.719,-7.7279,-7.7271,-7.7558,-7.7599,-7.7368,-7.737,-7.7372,0,-7.5916,-7.6015,-7.6136,-7.6207,-7.6266,-7.6378,-7.6452,-7.6497,-7.6572,-7.669,-7.6764,-7.6885,-7.6984,-7.7175,-7.7238,-7.735,-7.735,-7.7443,-7.7366,-7.7358,-7.7353,-7.7347,-7.7358,-7.7457,-7.7459,-7.7461,-7.7463,0,-7.6114,-7.6139,-7.6246,-7.6365,-7.6454,-7.6549,-7.664,-7.6697,-7.6756,-7.6841,-7.6966,-7.7043,-7.7195,-7.7314,-7.7431,-7.7485,-7.7484,-7.7487,-7.7514,-7.7508,-7.7489,-7.7502,-7.7227,-7.748,-7.7478,-7.7477,-7.7476,-7.7475,-7.6249,-7.6338,-7.6439,-7.6559,-7.6634,-7.6721,-7.6811,-7.6871,-7.6977,-7.7107,-7.7126,-7.726,-7.7354,-7.7511,-7.7571,-7.7676,-7.7651,-7.769,-7.77,-7.7709,-7.7716,-7.7473,-7.7696,-7.7696,-7.7696,-7.7695,-7.7695,0,-7.6448,-7.6514,-7.6625,-7.6757,-7.6852,-7.6847,-7.695,-7.7029,-7.7148,-7.7237,-7.7337,-7.7481,-7.7599,-7.7673,-7.7791,-7.7861,-7.7864,-7.789,-7.7886,-7.7899,-7.773,-7.7696,-7.7887,-7.7886,-7.7886,-7.7886,-7.7886,-7.7886,-7.6562,-7.6714,-7.6752,-7.6941,-7.7005,-7.714,-7.72,-7.728,-7.7353,-7.7516,-7.7615,-7.7664,-7.7748,-7.7873,-7.7981,-7.8,-7.8043,-7.8072,-7.8089,-7.793,-7.791,-7.7891,-7.7859,-7.8081,-7.8081,-7.8249,-7.825,-7.8251]}]]